Skip Page Navigation
NASA JPL Caltech
NASA Logo - Jet Propulsion Laboratory + View the NASA Portal
+ Center for Near-Earth Object Studies
JPL Home Earth Solar System Stars & Galaxies Technology
JPL Solar System Dynamics
BODIES ORBITS EPHEMERIDES TOOLS PHYSICAL DATA DISCOVERY FAQ SITE MAP
IMPORTANT: The SSD Announcement email list is now available. Major changes are coming in the near future, including possible hostname and/or URL changes. To be notified of such changes, subscribe to this email list.

Please visit this page for more details.


JPL Small-Body Database Browser
Search: [ help ]  
437920 (2002 LV13)
Classification: Main-belt Asteroid          SPK-ID: 2437920
Ephemeris | Orbit Diagram | Orbital Elements | Mission Design | Physical Parameters | Discovery Circumstances ]

[ show orbit diagram ]
Orbital Elements at Epoch 2458600.5 (2019-Apr-27.0) TDB
Reference: JPL 13 (heliocentric ecliptic J2000)
 Element Value Uncertainty (1-sigma)   Units 
e .3484158533499029 8.1829e-08  
a 2.609092564289075 2.8299e-08 au
q 1.70004335203341 2.224e-07 au
i 27.76762737809633 1.5252e-05 deg
node 254.6783044292348 2.1263e-05 deg
peri 79.9345547078649 5.7642e-05 deg
M 315.1034179866367 2.7105e-05 deg
tp 2458792.474451786559
(2019-Nov-04.97445179)
0.00011503 TDB
period 1539.333275361372
4.21
2.5044e-05
6.857e-08
d
yr
n .2338674839049957 3.8048e-09 deg/d
Q 3.518141776544739 3.8158e-08 au
  Orbit Determination Parameters
   # obs. used (total)      169  
   data-arc span      6287 days (17.21 yr)  
   first obs. used      2002-06-06  
   last obs. used      2019-08-23  
   planetary ephem.      DE431  
   SB-pert. ephem.      SB431-N16  
   condition code      0  
   norm. resid. RMS      .45369  
   source      ORB  
   producer      Otto Matic  
   solution date      2019-Sep-24 07:38:02  

Additional Information
 Earth MOID = .888277 au 
 Jupiter MOID = 2.41076 au 
 T_jup = 3.169 
[ show covariance matrix ]

Ephemeris | Orbit Diagram | Orbital Elements | Mission Design | Physical Parameters | Discovery Circumstances ]

Physical Parameter Table
Parameter Symbol Value Units Sigma Reference Notes
absolute magnitude H 16.2   n/a MPO360997  

437920 (2002 LV13)          Discovered 2002-Jun-06 by LINEAR at Socorro
Reference: Last Updated: 2015-07-06

Alternate Designations
 2002 LV13 = 2007 VF186 
Ephemeris | Orbit Diagram | Orbital Elements | Mission Design | Physical Parameters | Discovery Circumstances ]
ABOUT SSD CREDITS/AWARDS PRIVACY/COPYRIGHT GLOSSARY LINKS
FirstGov 2019-Dec-15 19:55 UT
(server date/time)  
NASA Home Page
Site Manager:   Ryan S. Park
Webmaster  Alan B. Chamberlin